Tracking 21611 objects as of 22-Oct-2020
HD Live streaming from Space Station
objects crossing your sky now

COSMOS 1779 (GLONASS)

Track COSMOS 1779 (GLONASS) now!
COSMOS 1779 (GLONASS) is classified as:


NORAD ID: 16962
Int'l Code: 1986-071B
Perigee: 19,108.6 km
Apogee: 19,165.3 km
Inclination: 64.2 °
Period: 675.7 minutes
Semi major axis: 25507 km
RCS: 1.5271 m2 (large)
Launch date: September 16, 1986
Source: Commonwealth of Independent States (former USSR) (CIS)
Launch site: TYURATAM MISSILE AND SPACE COMPLEX (TTMTR)
aabbcc
Your satellite tracking list
Your tracking list is empty




NASA's NSSDC Master Catalog

Two Line Element Set (TLE):
1 16962U 86071B   20294.63253994 +.00000038 +00000-0 +00000-0 0  9995
2 16962 064.1524 143.4623 0011127 040.1959 318.7446 02.13103012265336
Source of the keplerian elements: AFSPC